BAW78H EGCC-EHAM

Flight info

Callsign BAW78H
Flight time 0h 47m
Altitude 33000
Route DESIG L603 LAMSO
Aircraft A320/M-SDE3FGHIRWY/LB1

Departure

Time 2026-05-05 18:24
Airport Manchester Airport (EGCC)

Arrival

Time 2026-05-05 19:11
Airport Amsterdam Airport Schiphol (EHAM)
Time Latitude Longitude Altitude Speed Heading
2026-05-05 17:44 53.36555 -2.27933 255 ft 0 kts 45°
2026-05-05 18:09 53.36555 -2.27934 255 ft 1 kts 45°
2026-05-05 18:10 53.36538 -2.27962 255 ft 4 kts 45°
2026-05-05 18:10 53.36520 -2.27992 255 ft 2 kts 45°
2026-05-05 18:10 53.36508 -2.28019 255 ft 4 kts 96°
2026-05-05 18:10 53.36519 -2.28051 255 ft 4 kts 135°
2026-05-05 18:11 53.36510 -2.28036 255 ft 3 kts 135°
2026-05-05 18:11 53.36507 -2.28032 255 ft 0 kts 135°
2026-05-05 18:14 53.36507 -2.28031 255 ft 1 kts 135°
2026-05-05 18:14 53.36499 -2.28019 255 ft 4 kts 140°
2026-05-05 18:14 53.36470 -2.27987 255 ft 6 kts 147°
2026-05-05 18:15 53.36428 -2.27935 255 ft 9 kts 147°
2026-05-05 18:15 53.36369 -2.27972 255 ft 11 kts 222°
2026-05-05 18:15 53.36303 -2.28053 255 ft 13 kts 202°
2026-05-05 18:15 53.36217 -2.28126 255 ft 15 kts 213°
2026-05-05 18:16 53.36122 -2.28093 255 ft 17 kts 137°
2026-05-05 18:16 53.36034 -2.27962 255 ft 13 kts 140°
2026-05-05 18:16 53.35956 -2.27864 255 ft 15 kts 154°
2026-05-05 18:16 53.35848 -2.27855 253 ft 18 kts 186°
2026-05-05 18:17 53.35699 -2.27884 245 ft 25 kts 186°
2026-05-05 18:17 53.35590 -2.27901 239 ft 15 kts 185°
2026-05-05 18:17 53.35475 -2.27923 239 ft 17 kts 192°
2026-05-05 18:17 53.35370 -2.28060 236 ft 21 kts 224°
2026-05-05 18:18 53.35255 -2.28254 232 ft 26 kts 227°
2026-05-05 18:18 53.35134 -2.28506 227 ft 30 kts 231°
2026-05-05 18:18 53.35081 -2.28618 229 ft 8 kts 231°
2026-05-05 18:18 53.35039 -2.28700 228 ft 11 kts 226°
2026-05-05 18:19 53.34974 -2.28812 226 ft 15 kts 226°
2026-05-05 18:19 53.34892 -2.28956 222 ft 20 kts 226°
2026-05-05 18:19 53.34784 -2.29156 216 ft 26 kts 230°
2026-05-05 18:19 53.34679 -2.29325 211 ft 5 kts 204°
2026-05-05 18:20 53.34675 -2.29328 215 ft 3 kts 202°
2026-05-05 18:20 53.34632 -2.29343 217 ft 7 kts 181°
2026-05-05 18:20 53.34560 -2.29304 219 ft 16 kts 146°
2026-05-05 18:20 53.34542 -2.29224 214 ft 6 kts 64°
2026-05-05 18:21 53.34548 -2.29209 220 ft 0 kts 56°
2026-05-05 18:23 53.34551 -2.29204 218 ft 4 kts 55°
2026-05-05 18:23 53.34700 -2.28892 221 ft 69 kts 51°
2026-05-05 18:23 53.35126 -2.28009 233 ft 124 kts 51°
2026-05-05 18:24 53.35748 -2.26723 429 ft 149 kts 52°
2026-05-05 18:24 53.36407 -2.25387 1043 ft 149 kts 51°
2026-05-05 18:24 53.37061 -2.24022 1698 ft 154 kts 51°
2026-05-05 18:24 53.37769 -2.22519 2010 ft 176 kts 52°
2026-05-05 18:25 53.38580 -2.20792 2318 ft 201 kts 52°
2026-05-05 18:25 53.39173 -2.19531 2597 ft 217 kts 52°
2026-05-05 18:25 53.40510 -2.16688 3313 ft 245 kts 52°
2026-05-05 18:25 53.41578 -2.14415 4198 ft 252 kts 52°
2026-05-05 18:26 53.42676 -2.12080 5084 ft 259 kts 51°
2026-05-05 18:26 53.43805 -2.09676 5946 ft 266 kts 51°
2026-05-05 18:26 53.44961 -2.07215 6825 ft 271 kts 50°
2026-05-05 18:26 53.46140 -2.04706 7633 ft 278 kts 50°
2026-05-05 18:27 53.47330 -2.02169 8487 ft 282 kts 50°
2026-05-05 18:27 53.48555 -1.99562 9356 ft 286 kts 48°
2026-05-05 18:27 53.49804 -1.96927 10179 ft 291 kts 47°
2026-05-05 18:27 53.51130 -1.94181 10466 ft 315 kts 48°
2026-05-05 18:28 53.52197 -1.86802 11302 ft 353 kts 102°
2026-05-05 18:28 53.51493 -1.82840 12013 ft 357 kts 107°
2026-05-05 18:28 53.50771 -1.78819 12696 ft 362 kts 106°
2026-05-05 18:29 53.50061 -1.74727 13410 ft 366 kts 106°
2026-05-05 18:29 53.49359 -1.70602 14116 ft 369 kts 106°
2026-05-05 18:29 53.48652 -1.66432 14758 ft 373 kts 106°
2026-05-05 18:29 53.47938 -1.62223 15363 ft 377 kts 106°
2026-05-05 18:30 53.47213 -1.57973 15990 ft 380 kts 107°
2026-05-05 18:30 53.46466 -1.53693 16632 ft 383 kts 107°
2026-05-05 18:30 53.45696 -1.49401 17280 ft 386 kts 107°
2026-05-05 18:30 53.44912 -1.45082 17917 ft 389 kts 108°
2026-05-05 18:31 53.44117 -1.40719 18522 ft 393 kts 108°
2026-05-05 18:31 53.43316 -1.36325 19099 ft 396 kts 108°
2026-05-05 18:31 53.42508 -1.31890 19698 ft 399 kts 108°
2026-05-05 18:31 53.41697 -1.27426 20288 ft 402 kts 108°
2026-05-05 18:32 53.40878 -1.22926 20863 ft 405 kts 108°
2026-05-05 18:32 53.40053 -1.18396 21425 ft 408 kts 109°
2026-05-05 18:32 53.39222 -1.13830 21974 ft 412 kts 109°
2026-05-05 18:32 53.38382 -1.09221 22522 ft 415 kts 109°
2026-05-05 18:33 53.37537 -1.04587 23048 ft 418 kts 109°
2026-05-05 18:33 53.36681 -0.99919 23536 ft 422 kts 109°
2026-05-05 18:33 53.35813 -0.95202 23946 ft 426 kts 109°
2026-05-05 18:33 53.34936 -0.90449 24396 ft 428 kts 109°
2026-05-05 18:34 53.34053 -0.85678 24835 ft 430 kts 109°
2026-05-05 18:34 53.33163 -0.80884 25282 ft 432 kts 109°
2026-05-05 18:34 53.32265 -0.76077 25716 ft 434 kts 110°
2026-05-05 18:34 53.31360 -0.71256 26139 ft 436 kts 109°
2026-05-05 18:35 53.30451 -0.66408 26556 ft 438 kts 109°
2026-05-05 18:35 53.29538 -0.61538 26970 ft 440 kts 109°
2026-05-05 18:35 53.28624 -0.56654 27381 ft 441 kts 109°
2026-05-05 18:35 53.27701 -0.51753 27788 ft 443 kts 109°
2026-05-05 18:36 53.26769 -0.46832 28188 ft 445 kts 109°
2026-05-05 18:36 53.25833 -0.41891 28573 ft 447 kts 109°
2026-05-05 18:36 53.24891 -0.36931 28936 ft 449 kts 110°
2026-05-05 18:36 53.23940 -0.31950 29298 ft 452 kts 110°
2026-05-05 18:37 53.22983 -0.26941 29669 ft 454 kts 110°
2026-05-05 18:37 53.22021 -0.21917 30038 ft 456 kts 110°
2026-05-05 18:37 53.21052 -0.16869 30356 ft 458 kts 110°
2026-05-05 18:37 53.20077 -0.11801 30694 ft 459 kts 110°
2026-05-05 18:38 53.19104 -0.06746 31147 ft 457 kts 110°
2026-05-05 18:38 53.18147 -0.01785 31596 ft 455 kts 110°
2026-05-05 18:38 53.17176 0.03230 31989 ft 455 kts 111°
2026-05-05 18:38 53.16199 0.08241 32410 ft 454 kts 111°
2026-05-05 18:39 53.15221 0.13243 32824 ft 454 kts 111°
2026-05-05 18:39 53.14242 0.18238 32981 ft 452 kts 111°
2026-05-05 18:39 53.12301 0.28110 32996 ft 447 kts 111°
2026-05-05 18:40 53.10363 0.37931 32997 ft 446 kts 111°
2026-05-05 18:40 53.08419 0.47736 32997 ft 446 kts 111°
2026-05-05 18:41 53.06458 0.57540 32997 ft 447 kts 111°
2026-05-05 18:41 53.04493 0.67343 32992 ft 447 kts 111°
2026-05-05 18:42 53.02523 0.77151 32998 ft 448 kts 111°
2026-05-05 18:42 53.00539 0.86957 32999 ft 448 kts 112°
2026-05-05 18:43 52.98543 0.96746 32998 ft 448 kts 112°
2026-05-05 18:43 52.97088 1.06824 32998 ft 451 kts 104°
2026-05-05 18:44 52.95914 1.17031 33008 ft 450 kts 104°
2026-05-05 18:44 52.94726 1.27208 33012 ft 449 kts 104°
2026-05-05 18:45 52.93534 1.37376 33003 ft 449 kts 104°
2026-05-05 18:45 52.92348 1.47457 33005 ft 449 kts 104°
2026-05-05 18:46 52.91147 1.57588 32987 ft 448 kts 104°
2026-05-05 18:46 52.89940 1.67703 32992 ft 447 kts 104°
2026-05-05 18:47 52.88720 1.77785 32990 ft 446 kts 104°
2026-05-05 18:47 52.87484 1.87852 32984 ft 446 kts 104°
2026-05-05 18:48 52.86249 1.97910 32958 ft 446 kts 104°
2026-05-05 18:48 52.85634 2.02934 32235 ft 447 kts 104°
2026-05-05 18:48 52.85017 2.07955 31703 ft 442 kts 104°
2026-05-05 18:49 52.84405 2.12921 31153 ft 439 kts 105°
2026-05-05 18:49 52.83793 2.17852 30600 ft 436 kts 105°
2026-05-05 18:49 52.83182 2.22744 30053 ft 433 kts 105°
2026-05-05 18:49 52.82571 2.27604 29440 ft 430 kts 105°
2026-05-05 18:50 52.81965 2.32406 28917 ft 425 kts 105°
2026-05-05 18:50 52.81360 2.37165 28375 ft 421 kts 104°
2026-05-05 18:50 52.80760 2.41878 27847 ft 417 kts 104°
2026-05-05 18:50 52.80161 2.46552 27320 ft 414 kts 104°
2026-05-05 18:51 52.79567 2.51194 26794 ft 412 kts 104°
2026-05-05 18:51 52.78978 2.55804 26278 ft 409 kts 104°
2026-05-05 18:51 52.78397 2.60327 25783 ft 407 kts 104°
2026-05-05 18:51 52.77810 2.64884 25277 ft 405 kts 104°
2026-05-05 18:52 52.77217 2.69477 24799 ft 403 kts 104°
2026-05-05 18:52 52.76638 2.73933 24323 ft 401 kts 104°
2026-05-05 18:52 52.76054 2.78425 23858 ft 400 kts 103°
2026-05-05 18:52 52.75467 2.82910 23357 ft 399 kts 103°
2026-05-05 18:53 52.74882 2.87372 22869 ft 397 kts 103°
2026-05-05 18:53 52.74295 2.91808 22399 ft 394 kts 103°
2026-05-05 18:53 52.73710 2.96209 21917 ft 391 kts 104°
2026-05-05 18:53 52.72857 3.00439 21437 ft 387 kts 116°
2026-05-05 18:54 52.71587 3.04311 20942 ft 382 kts 122°
2026-05-05 18:54 52.70254 3.08093 20453 ft 380 kts 122°
2026-05-05 18:54 52.68931 3.11855 19952 ft 378 kts 122°
2026-05-05 18:54 52.67870 3.15850 19237 ft 384 kts 108°
2026-05-05 18:55 52.67094 3.20046 18730 ft 382 kts 108°
2026-05-05 18:55 52.66316 3.24223 18204 ft 380 kts 108°
2026-05-05 18:55 52.65538 3.28375 17649 ft 378 kts 108°
2026-05-05 18:55 52.64765 3.32487 17143 ft 374 kts 108°
2026-05-05 18:56 52.64001 3.36555 16637 ft 370 kts 107°
2026-05-05 18:56 52.63243 3.40591 16130 ft 368 kts 108°
2026-05-05 18:56 52.62492 3.44592 15630 ft 365 kts 108°
2026-05-05 18:56 52.61746 3.48573 15128 ft 363 kts 108°
2026-05-05 18:57 52.61003 3.52521 14624 ft 360 kts 107°
2026-05-05 18:57 52.60259 3.56453 14134 ft 359 kts 108°
2026-05-05 18:57 52.59517 3.60365 13627 ft 358 kts 108°
2026-05-05 18:57 52.58778 3.64249 13102 ft 355 kts 107°
2026-05-05 18:58 52.58045 3.68102 12611 ft 351 kts 107°
2026-05-05 18:58 52.57325 3.71874 12135 ft 349 kts 108°
2026-05-05 18:58 52.56601 3.75661 11655 ft 346 kts 108°
2026-05-05 18:58 52.55880 3.79414 11166 ft 343 kts 108°
2026-05-05 18:59 52.55163 3.83144 10701 ft 341 kts 108°
2026-05-05 18:59 52.54451 3.86844 10263 ft 338 kts 107°
2026-05-05 18:59 52.53755 3.90456 10124 ft 325 kts 107°
2026-05-05 18:59 52.53085 3.93929 10011 ft 313 kts 107°
2026-05-05 19:00 52.52429 3.97282 9858 ft 304 kts 109°
2026-05-05 19:00 52.51714 4.00501 9632 ft 297 kts 110°
2026-05-05 19:00 52.50957 4.03622 9473 ft 293 kts 111°
2026-05-05 19:00 52.50185 4.06699 9331 ft 291 kts 111°
2026-05-05 19:01 52.49414 4.09762 9212 ft 290 kts 112°
2026-05-05 19:01 52.48649 4.12819 9073 ft 290 kts 112°
2026-05-05 19:01 52.47891 4.15874 8942 ft 290 kts 111°
2026-05-05 19:01 52.47060 4.18880 8804 ft 289 kts 123°
2026-05-05 19:02 52.45684 4.21248 8587 ft 288 kts 140°
2026-05-05 19:02 52.44102 4.23258 8210 ft 288 kts 142°
2026-05-05 19:02 52.42493 4.25219 7896 ft 286 kts 142°
2026-05-05 19:02 52.40901 4.27154 7560 ft 285 kts 143°
2026-05-05 19:03 52.39309 4.29077 7233 ft 283 kts 142°
2026-05-05 19:03 52.38258 4.30340 7011 ft 283 kts 142°
2026-05-05 19:03 52.36678 4.32237 6699 ft 281 kts 143°
2026-05-05 19:03 52.35109 4.34125 6396 ft 279 kts 142°
2026-05-05 19:04 52.33535 4.35990 5982 ft 280 kts 142°
2026-05-05 19:04 52.31942 4.37815 5639 ft 280 kts 142°
2026-05-05 19:04 52.30330 4.39603 5321 ft 278 kts 143°
2026-05-05 19:04 52.28741 4.41382 5014 ft 276 kts 143°
2026-05-05 19:05 52.27165 4.43141 4602 ft 273 kts 142°
2026-05-05 19:05 52.25595 4.44841 4185 ft 269 kts 143°
2026-05-05 19:05 52.24047 4.46500 3765 ft 262 kts 142°
2026-05-05 19:05 52.22538 4.48074 3357 ft 254 kts 142°
2026-05-05 19:06 52.21073 4.49585 3029 ft 243 kts 143°
2026-05-05 19:06 52.19707 4.50982 2994 ft 220 kts 141°
2026-05-05 19:06 52.18756 4.52649 2987 ft 189 kts 106°
2026-05-05 19:06 52.18673 4.54620 2992 ft 174 kts 68°
2026-05-05 19:07 52.19412 4.56080 2870 ft 173 kts 28°
2026-05-05 19:07 52.20508 4.56881 2622 ft 172 kts 28°
2026-05-05 19:07 52.21565 4.57779 2409 ft 169 kts 28°
2026-05-05 19:07 52.22573 4.58718 2204 ft 166 kts 37°
2026-05-05 19:08 52.23404 4.60002 2002 ft 165 kts 49°
2026-05-05 19:08 52.24106 4.61476 1781 ft 164 kts 52°
2026-05-05 19:08 52.24741 4.62992 1604 ft 159 kts 54°
2026-05-05 19:08 52.25331 4.64474 1373 ft 149 kts 55°
2026-05-05 19:09 52.25876 4.65866 1150 ft 141 kts 54°
2026-05-05 19:09 52.26377 4.67159 958 ft 129 kts 54°
2026-05-05 19:09 52.26856 4.68394 783 ft 129 kts 54°
2026-05-05 19:09 52.27328 4.69618 625 ft 126 kts 53°
2026-05-05 19:10 52.27794 4.70863 432 ft 128 kts 50°
2026-05-05 19:10 52.28284 4.72075 279 ft 128 kts 52°
2026-05-05 19:10 52.28752 4.73310 93 ft 128 kts 53°
2026-05-05 19:10 52.29213 4.74500 4 ft 112 kts 54°
2026-05-05 19:11 52.29554 4.75394 -2 ft 69 kts 58°
2026-05-05 19:11 52.29725 4.75846 -2 ft 35 kts 57°
2026-05-05 19:11 52.29872 4.76214 -3 ft 40 kts 58°
2026-05-05 19:11 52.30012 4.76511 -2 ft 20 kts 32°
2026-05-05 19:12 52.30132 4.76628 -1 ft 14 kts 28°
2026-05-05 19:12 52.30207 4.76693 -1 ft 6 kts 28°
2026-05-05 19:12 52.30259 4.76736 -1 ft 11 kts 23°
2026-05-05 19:12 52.30306 4.76793 -1 ft 10 kts 67°
2026-05-05 19:13 52.30348 4.76920 -1 ft 14 kts 54°
2026-05-05 19:13 52.30410 4.77072 -1 ft 18 kts 58°
2026-05-05 19:13 52.30478 4.77253 -1 ft 20 kts 56°
2026-05-05 19:13 52.30541 4.77413 -1 ft 17 kts 58°
2026-05-05 19:14 52.30599 4.77546 -1 ft 12 kts 44°
2026-05-05 19:14 52.30681 4.77591 -1 ft 13 kts
2026-05-05 19:14 52.30782 4.77596 -1 ft 16 kts 354°
2026-05-05 19:14 52.30799 4.77474 -1 ft 16 kts 203°
2026-05-05 19:15 52.30678 4.77451 -1 ft 17 kts 193°
2026-05-05 19:15 52.30640 4.77305 -1 ft 16 kts 275°
2026-05-05 19:15 52.30651 4.77135 -1 ft 11 kts 276°
2026-05-05 19:15 52.30688 4.77087 -1 ft 8 kts 360°
2026-05-05 19:16 52.30716 4.77089 -1 ft 0 kts